Quincy, IL

3:51 AM CST on November 17, 2019 (GMT -0600)
Quincy Regional-Baldwin

Weather History for KUIN - September, 2019

Change the Weather History Date:

Sunday, September 29, 2019

  Actual Average Record
Temperature  
Mean Temperature 75 °F 61 °F  
Max Temperature 84 °F 72 °F 100 °F (1953)
Min Temperature 66 °F 50 °F 32 °F (1984)
Degree Days  
Heating Degree Days 0 6  
Month to date heating degree days 2 77  
Since 1 July heating degree days 4 82  
Cooling Degree Days 10 2  
Month to date cooling degree days 247 121  
Year to date cooling degree days 1304 1074  
Growing Degree Days 25 (Base 50)    
Moisture  
Dew Point 68 °F    
Average Humidity 91    
Maximum Humidity 97    
Minimum Humidity 65    
Precipitation  
Precipitation 0.54 in 0.11 in 1.80 in (1906)
Month to date precipitation 5.06 3.20  
Year to date precipitation 36.09 28.95  
Sea Level Pressure  
Sea Level Pressure 30.04 in    
Wind  
Wind Speed 6 mph ()    
Max Wind Speed 15 mph    
Max Gust Speed 22 mph    
Visibility 6.0 miles    
Events Fog , Rain , Thunderstorm    
T = Trace of Precipitation, MM = Missing Value Source: Averaged Metar Reports

Daily Weather History Graph

Daily Weather History Graph

Search for Another Location

Airport or City:

Astronomy

Sep. 29, 2019 Rise Set
Actual Time 6:58 AM CDT 6:50 PM CDT
Civil Twilight 6:31 AM CDT 7:17 PM CDT
Nautical Twilight 6:00 AM CDT 7:48 PM CDT
Astronomical Twilight 5:28 AM CDT 8:20 PM CDT
Moon 7:49 AM CDT (9/29) 7:51 PM CDT (9/29)
Length of Visible Light 12h 45m
Length of Day
11h 51m
New Moon, 1% of the Moon is Illuminated
Sep 29
New Moon
Oct 5
First Quarter
Oct 13
Full
Oct 21
Last Quarter
Oct 27
New

Hourly Weather History & Observations

Time (CDT) Temp. Heat Index Dew Point Humidity Pressure Visibility Wind Dir Wind Speed Gust Speed Precip Events Conditions
12:36 AM 68.0 °F - 66.9 °F 96% 30.06 in 2.0 mi Calm Calm - 0.46 in Rain , Thunderstorm Thunderstorms and Rain
12:40 AM 68.0 °F - 66.9 °F 96% 30.06 in 3.0 mi Variable 3.5 mph - 0.47 in Rain , Thunderstorm Thunderstorms and Rain
12:52 AM 68.0 °F - 66.2 °F 94% 30.06 in 4.0 mi NNW 3.5 mph - 0.50 in Rain Rain
12:54 AM 68.0 °F - 66.9 °F 96% 30.05 in 4.0 mi North 3.5 mph - 0.50 in Rain Rain
1:54 AM 66.9 °F - 66.0 °F 97% 30.02 in 8.0 mi East 11.5 mph - 0.03 in Rain Light Rain
2:28 AM 66.9 °F - 66.0 °F 97% 30.03 in 7.0 mi East 8.1 mph - 0.00 in   Overcast
2:54 AM 66.9 °F - 66.0 °F 97% 30.01 in 6.0 mi ESE 8.1 mph - 0.00 in   Overcast
3:29 AM 68.0 °F - 66.9 °F 96% 30.03 in 1.8 mi ESE 9.2 mph - N/A   Overcast
3:54 AM 68.0 °F - 66.9 °F 96% 30.02 in 1.8 mi ESE 5.8 mph - N/A   Overcast
4:15 AM 68.0 °F - 66.9 °F 96% 30.04 in 4.0 mi ESE 5.8 mph - N/A   Overcast
4:54 AM 68.0 °F - 66.9 °F 96% 30.02 in 4.0 mi ESE 5.8 mph - N/A   Overcast
5:12 AM 68.0 °F - 66.9 °F 96% 30.04 in 2.0 mi ESE 5.8 mph - N/A   Overcast
5:25 AM 68.0 °F - 66.9 °F 96% 30.05 in 1.2 mi SE 5.8 mph - N/A   Overcast
5:49 AM 68.0 °F - 66.2 °F 94% 30.05 in 0.5 mi ESE 5.8 mph - N/A Fog Fog
5:54 AM 68.0 °F - 66.9 °F 96% 30.04 in 0.5 mi SE 5.8 mph - N/A Fog Fog
6:05 AM 68.0 °F - 66.9 °F 96% 30.05 in 0.2 mi SE 5.8 mph - N/A Fog Fog
6:54 AM 68.0 °F - 66.9 °F 96% 30.04 in 0.2 mi SE 5.8 mph - N/A Fog Fog
7:42 AM 69.1 °F - 68.0 °F 96% 30.06 in 0.5 mi SSE 8.1 mph - N/A Fog Fog
7:54 AM 70.0 °F - 68.0 °F 93% 30.05 in 1.2 mi SSE 8.1 mph - N/A   Overcast
8:20 AM 70.0 °F - 69.1 °F 97% 30.07 in 3.0 mi SSE 5.8 mph - N/A   Overcast
8:39 AM 70.0 °F - 69.1 °F 97% 30.07 in 6.0 mi SE 6.9 mph - N/A   Overcast
8:54 AM 71.1 °F - 69.1 °F 93% 30.06 in 6.0 mi SE 8.1 mph - N/A   Mostly Cloudy
9:16 AM 71.1 °F - 69.1 °F 93% 30.08 in 7.0 mi SSE 8.1 mph - 0.01 in   Overcast
9:54 AM 72.0 °F - 69.1 °F 91% 30.06 in 10.0 mi South 6.9 mph - 0.01 in   Overcast
10:54 AM 75.9 °F - 70.0 °F 82% 30.06 in 10.0 mi South 8.1 mph - 0.00 in   Scattered Clouds
11:54 AM 79.0 °F - 71.1 °F 77% 30.05 in 10.0 mi South 9.2 mph - N/A   Mostly Cloudy
12:54 PM 80.1 °F 83.6 °F 71.1 °F 74% 30.04 in 10.0 mi South 10.4 mph - N/A   Mostly Cloudy
1:54 PM 82.9 °F 87.0 °F 70.0 °F 65% 30.01 in 10.0 mi SSW 11.5 mph - N/A   Overcast
2:52 PM 78.8 °F - 71.6 °F 78% 30.04 in 10.0 mi NNW 13.8 mph - N/A   Scattered Clouds
2:54 PM 79.0 °F - 72.0 °F 79% 30.02 in 10.0 mi NNW 12.7 mph - N/A   Scattered Clouds
3:54 PM 78.1 °F - 71.1 °F 79% 30.03 in 10.0 mi NNE 11.5 mph - N/A   Clear
4:54 PM 78.1 °F - 71.1 °F 79% 30.02 in 10.0 mi NNE 9.2 mph - N/A   Scattered Clouds
5:54 PM 75.9 °F - 70.0 °F 82% 30.03 in 10.0 mi NE 9.2 mph - N/A   Scattered Clouds
6:54 PM 73.0 °F - 69.1 °F 87% 30.02 in 10.0 mi East 5.8 mph - N/A   Clear
7:54 PM 73.0 °F - 70.0 °F 90% 30.02 in 10.0 mi East 6.9 mph - N/A   Clear
8:54 PM 73.0 °F - 70.0 °F 90% 30.02 in 10.0 mi ESE 9.2 mph - N/A   Clear
9:54 PM 72.0 °F - 69.1 °F 91% 30.03 in 10.0 mi ESE 8.1 mph - N/A   Clear
10:54 PM 70.0 °F - 69.1 °F 97% 30.02 in 10.0 mi SE 8.1 mph - N/A   Clear
11:54 PM 71.1 °F - 69.1 °F 93% 30.02 in 10.0 mi SSE 8.1 mph - N/A   Clear